TimeCDT,TemperatureF,Dew PointF,Humidity,Sea Level PressureIn,VisibilityMPH,Wind Direction,Wind SpeedMPH,Gust SpeedMPH,PrecipitationIn,Events,Conditions,WindDirDegrees,DateUTC
12:53 AM,77.0,73.0,88,30.15,9.0,SSW,4.6,-,N/A,,Clear,200,2013-08-25 05:53:00
1:53 AM,77.0,71.1,82,30.16,10.0,South,6.9,-,N/A,,Clear,170,2013-08-25 06:53:00
2:53 AM,75.9,71.1,85,30.18,10.0,SSE,4.6,-,N/A,,Clear,160,2013-08-25 07:53:00
3:53 AM,75.9,71.1,85,30.18,9.0,SSE,8.1,-,N/A,,Clear,160,2013-08-25 08:53:00
4:53 AM,75.0,71.1,87,30.19,8.0,SSE,9.2,-,N/A,,Scattered Clouds,160,2013-08-25 09:53:00
5:03 AM,75.2,71.6,89,30.21,8.0,South,6.9,-,N/A,,Mostly Cloudy,170,2013-08-25 10:03:00
5:53 AM,75.0,70.0,84,30.21,7.0,SSE,8.1,-,N/A,,Mostly Cloudy,160,2013-08-25 10:53:00
6:04 AM,73.4,69.8,88,30.22,7.0,SSE,8.1,-,N/A,,Scattered Clouds,160,2013-08-25 11:04:00
6:53 AM,73.9,69.1,85,30.23,6.0,SSE,4.6,-,N/A,,Haze,150,2013-08-25 11:53:00
7:42 AM,75.2,69.8,83,30.26,6.0,SE,6.9,-,N/A,,Haze,140,2013-08-25 12:42:00
7:53 AM,75.0,70.0,84,30.25,6.0,SE,9.2,-,N/A,,Haze,140,2013-08-25 12:53:00
8:53 AM,77.0,69.1,76,30.26,8.0,SE,10.4,-,N/A,,Overcast,140,2013-08-25 13:53:00
9:53 AM,79.0,69.1,72,30.27,10.0,South,6.9,-,N/A,,Overcast,170,2013-08-25 14:53:00
10:53 AM,82.0,69.1,65,30.27,10.0,SSE,10.4,19.6,N/A,,Mostly Cloudy,150,2013-08-25 15:53:00
11:53 AM,82.9,70.0,65,30.26,10.0,SSE,8.1,-,N/A,,Overcast,160,2013-08-25 16:53:00
12:13 PM,84.2,69.8,62,30.26,10.0,South,8.1,-,N/A,,Overcast,170,2013-08-25 17:13:00
12:53 PM,84.9,70.0,61,30.24,10.0,South,8.1,-,N/A,,Partly Cloudy,170,2013-08-25 17:53:00
1:53 PM,86.0,69.1,57,30.22,10.0,SE,10.4,-,N/A,,Mostly Cloudy,130,2013-08-25 18:53:00
2:53 PM,87.1,69.1,55,30.20,10.0,ESE,9.2,-,N/A,,Mostly Cloudy,110,2013-08-25 19:53:00
3:53 PM,88.0,69.1,53,30.19,10.0,South,5.8,-,N/A,,Partly Cloudy,170,2013-08-25 20:53:00
4:53 PM,88.0,68.0,51,30.18,10.0,SSE,10.4,-,N/A,,Clear,150,2013-08-25 21:53:00
5:53 PM,87.1,69.1,55,30.18,10.0,SSE,6.9,-,N/A,,Clear,150,2013-08-25 22:53:00
6:53 PM,84.9,68.0,57,30.18,10.0,SE,6.9,-,N/A,,Clear,140,2013-08-25 23:53:00
7:53 PM,82.9,69.1,63,30.20,10.0,SSE,4.6,-,N/A,,Clear,160,2013-08-26 00:53:00
8:53 PM,81.0,69.1,67,30.22,10.0,SE,4.6,-,N/A,,Clear,140,2013-08-26 01:53:00
9:53 PM,79.0,70.0,74,30.23,10.0,SSE,5.8,-,N/A,,Clear,150,2013-08-26 02:53:00
10:53 PM,78.1,70.0,76,30.23,10.0,SE,3.5,-,N/A,,Clear,140,2013-08-26 03:53:00
11:53 PM,77.0,69.1,76,30.23,10.0,SSE,4.6,-,N/A,,Clear,160,2013-08-26 04:53:00